| time (UTC) | temp F | wind direction | speed MPH | gust MPH | rain 1hr in | rain 24hr in | rain mn in | humidity % | barometer mb |
| 20260505233011 | 72 | 203 | 0.0 | 1.0 | 0.00 | 0.00 | 0.00 | 69 | 1011.7 |
| 20260505232512 | 72 | 210 | 1.0 | 2.0 | 0.00 | 0.00 | 0.00 | 69 | 1011.7 |
| 20260505232214 | 72 | 230 | 0.0 | 1.0 | 0.00 | 0.00 | 0.00 | 69 | 1011.7 |
| 20260505232011 | 72 | 186 | 2.0 | 4.0 | 0.00 | 0.00 | 0.00 | 69 | 1011.7 |
| 20260505231510 | 72 | 219 | 1.0 | 3.0 | 0.00 | 0.00 | 0.00 | 69 | 1011.7 |
| 20260505231214 | 72 | 205 | 2.0 | 2.0 | 0.00 | 0.00 | 0.00 | 69 | 1011.4 |
| 20260505231011 | 72 | 193 | 2.0 | 2.0 | 0.00 | 0.00 | 0.00 | 69 | 1011.4 |
| 20260505230512 | 72 | 217 | 2.0 | 2.0 | 0.00 | 0.00 | 0.00 | 68 | 1011.4 |
| 20260505230216 | 72 | 203 | 0.0 | 3.0 | 0.00 | 0.00 | 0.00 | 68 | 1011.4 |
| 20260505230012 | 72 | 199 | 2.0 | 4.0 | 0.00 | 0.00 | 0.00 | 68 | 1011.4 |
| 20260505225511 | 72 | 229 | 1.0 | 2.0 | 0.00 | 0.00 | 0.00 | 67 | 1011.6 |
| 20260505225215 | 72 | 219 | 1.0 | 2.0 | 0.00 | 0.00 | 0.00 | 69 | 1011.6 |
| 20260505225011 | 72 | 241 | 0.0 | 3.0 | 0.00 | 0.00 | 0.00 | 69 | 1011.6 |
| 20260505224512 | 72 | 215 | 0.0 | 1.0 | 0.00 | 0.00 | 0.00 | 68 | 1011.6 |
| 20260505224213 | 72 | 137 | 1.0 | 5.0 | 0.00 | 0.00 | 0.00 | 68 | 1011.6 |
| 20260505224012 | 72 | 243 | 2.0 | 2.0 | 0.00 | 0.00 | 0.00 | 68 | 1011.6 |
| 20260505223510 | 72 | 224 | 3.0 | 3.0 | 0.00 | 0.00 | 0.00 | 68 | 1011.6 |
| 20260505223215 | 72 | 216 | 1.0 | 3.0 | 0.00 | 0.00 | 0.00 | 69 | 1011.6 |
| 20260505223011 | 72 | 208 | 1.0 | 1.0 | 0.00 | 0.00 | 0.00 | 69 | 1011.6 |
| 20260505222512 | 72 | 246 | 1.0 | 4.0 | 0.00 | 0.00 | 0.00 | 69 | 1011.6 |
| 20260505222214 | 72 | 195 | 0.0 | 1.0 | 0.00 | 0.00 | 0.00 | 69 | 1011.6 |
| 20260505222011 | 72 | 200 | 0.0 | 0.0 | 0.00 | 0.00 | 0.00 | 69 | 1011.6 |
| 20260505221510 | 72 | 216 | 3.0 | 3.0 | 0.00 | 0.00 | 0.00 | 68 | 1011.6 |
| 20260505221215 | 72 | 227 | 2.0 | 5.0 | 0.00 | 0.00 | 0.00 | 68 | 1011.6 |
| 20260505221012 | 72 | 227 | 3.0 | 5.0 | 0.00 | 0.00 | 0.00 | 69 | 1011.6 |
| 20260505220512 | 72 | 155 | 0.0 | 2.0 | 0.00 | 0.00 | 0.00 | 68 | 1011.6 |
| 20260505220213 | 72 | 179 | 1.0 | 4.0 | 0.00 | 0.00 | 0.00 | 67 | 1011.6 |
| 20260505220010 | 72 | 205 | 0.0 | 2.0 | 0.00 | 0.00 | 0.00 | 68 | 1011.6 |
| 20260505215511 | 72 | 188 | 0.0 | 3.0 | 0.00 | 0.00 | 0.00 | 68 | 1011.7 |
| 20260505215214 | 72 | 216 | 0.0 | 3.0 | 0.00 | 0.00 | 0.00 | 68 | 1011.7 |
| 20260505215011 | 72 | 232 | 1.0 | 4.0 | 0.00 | 0.00 | 0.00 | 68 | 1011.7 |
| 20260505214512 | 72 | 192 | 2.0 | 4.0 | 0.00 | 0.00 | 0.00 | 67 | 1011.7 |
| 20260505214214 | 72 | 199 | 3.0 | 6.0 | 0.00 | 0.00 | 0.00 | 66 | 1011.8 |
| 20260505214010 | 72 | 244 | 1.0 | 3.0 | 0.00 | 0.00 | 0.00 | 66 | 1011.8 |
| 20260505213510 | 72 | 236 | 2.0 | 5.0 | 0.00 | 0.00 | 0.00 | 66 | 1011.8 |
| 20260505213214 | 72 | 230 | 1.0 | 4.0 | 0.00 | 0.00 | 0.00 | 66 | 1011.8 |
| 20260505213011 | 72 | 205 | 2.0 | 6.0 | 0.00 | 0.00 | 0.00 | 66 | 1011.8 |
| 20260505212512 | 73 | 184 | 4.0 | 5.0 | 0.00 | 0.00 | 0.00 | 67 | 1011.8 |
| 20260505212214 | 72 | 223 | 2.0 | 3.0 | 0.00 | 0.00 | 0.00 | 66 | 1011.8 |
| 20260505212011 | 72 | 200 | 1.0 | 3.0 | 0.00 | 0.00 | 0.00 | 66 | 1011.8 |
| 20260505211510 | 73 | 226 | 2.0 | 3.0 | 0.00 | 0.00 | 0.00 | 66 | 1011.8 |
| 20260505211215 | 73 | 192 | 0.0 | 1.0 | 0.00 | 0.00 | 0.00 | 66 | 1011.9 |
| 20260505211011 | 73 | 174 | 0.0 | 0.0 | 0.00 | 0.00 | 0.00 | 65 | 1011.9 |
| 20260505210510 | 73 | 277 | 5.0 | 5.0 | 0.00 | 0.00 | 0.00 | 67 | 1011.9 |
| 20260505210214 | 73 | 200 | 0.0 | 1.0 | 0.00 | 0.00 | 0.00 | 65 | 1011.9 |
| 20260505210010 | 73 | 185 | 3.0 | 5.0 | 0.00 | 0.00 | 0.00 | 66 | 1011.9 |
| 20260505205511 | 73 | 258 | 1.0 | 3.0 | 0.00 | 0.00 | 0.00 | 65 | 1012.0 |
| 20260505205213 | 72 | 223 | 3.0 | 5.0 | 0.00 | 0.00 | 0.00 | 65 | 1012.0 |
| 20260505205012 | 72 | 158 | 1.0 | 6.0 | 0.00 | 0.00 | 0.00 | 65 | 1012.0 |
| 20260505204511 | 72 | 257 | 3.0 | 3.0 | 0.00 | 0.00 | 0.00 | 63 | 1012.0 |
| 20260505204215 | 72 | 261 | 2.0 | 5.0 | 0.00 | 0.00 | 0.00 | 63 | 1011.9 |
| 20260505204012 | 72 | 175 | 1.0 | 7.0 | 0.00 | 0.00 | 0.00 | 63 | 1011.9 |
| 20260505203511 | 73 | 191 | 1.0 | 5.0 | 0.00 | 0.00 | 0.00 | 63 | 1011.9 |
| 20260505203213 | 73 | 196 | 1.0 | 2.0 | 0.00 | 0.00 | 0.00 | 63 | 1011.9 |
| 20260505203010 | 73 | 224 | 1.0 | 2.0 | 0.00 | 0.00 | 0.00 | 64 | 1011.9 |
| 20260505202511 | 73 | 184 | 0.0 | 2.0 | 0.00 | 0.00 | 0.00 | 63 | 1011.9 |
| 20260505202215 | 73 | 261 | 0.0 | 3.0 | 0.00 | 0.00 | 0.00 | 63 | 1011.9 |
| 20260505202012 | 73 | 181 | 1.0 | 6.0 | 0.00 | 0.00 | 0.00 | 63 | 1011.9 |
| 20260505201511 | 73 | 220 | 2.0 | 4.0 | 0.00 | 0.00 | 0.00 | 62 | 1011.9 |
| 20260505201214 | 74 | 158 | 1.0 | 3.0 | 0.00 | 0.00 | 0.00 | 63 | 1012.2 |
| 20260505201011 | 74 | 198 | 2.0 | 4.0 | 0.00 | 0.00 | 0.00 | 63 | 1012.2 |
| 20260505200510 | 74 | 184 | 3.0 | 6.0 | 0.00 | 0.00 | 0.00 | 63 | 1012.2 |
| 20260505200215 | 74 | 223 | 0.0 | 2.0 | 0.00 | 0.00 | 0.00 | 62 | 1012.2 |
| 20260505200012 | 74 | 257 | 0.0 | 1.0 | 0.00 | 0.00 | 0.00 | 63 | 1012.2 |
| 20260505195511 | 74 | 241 | 0.0 | 3.0 | 0.00 | 0.00 | 0.00 | 63 | 1012.5 |
| 20260505195214 | 74 | 226 | 2.0 | 5.0 | 0.00 | 0.00 | 0.00 | 61 | 1012.5 |
| 20260505195010 | 74 | 239 | 6.0 | 6.0 | 0.00 | 0.00 | 0.00 | 61 | 1012.5 |
| 20260505194511 | 74 | 184 | 0.0 | 2.0 | 0.00 | 0.00 | 0.00 | 61 | 1012.5 |
| 20260505194213 | 74 | 230 | 0.0 | 4.0 | 0.00 | 0.00 | 0.00 | 59 | 1012.5 |
| 20260505194011 | 74 | 160 | 2.0 | 6.0 | 0.00 | 0.00 | 0.00 | 59 | 1012.5 |
| 20260505193512 | 74 | 240 | 4.0 | 5.0 | 0.00 | 0.00 | 0.00 | 59 | 1012.5 |
| 20260505193215 | 74 | 195 | 2.0 | 3.0 | 0.00 | 0.00 | 0.00 | 61 | 1012.5 |
| 20260505193010 | 74 | 241 | 2.0 | 2.0 | 0.00 | 0.00 | 0.00 | 62 | 1012.5 |
| 20260505192511 | 73 | 184 | 1.0 | 5.0 | 0.00 | 0.00 | 0.00 | 63 | 1013.0 |
| 20260505192214 | 73 | 193 | 1.0 | 2.0 | 0.00 | 0.00 | 0.00 | 62 | 1013.0 |
| 20260505192011 | 73 | 223 | 2.0 | 6.0 | 0.00 | 0.00 | 0.00 | 63 | 1013.0 |
| 20260505191511 | 72 | 195 | 1.0 | 2.0 | 0.00 | 0.00 | 0.00 | 63 | 1013.0 |
| 20260505191214 | 73 | 232 | 6.0 | 6.0 | 0.00 | 0.00 | 0.00 | 62 | 1013.0 |
| 20260505191010 | 73 | 193 | 2.0 | 6.0 | 0.00 | 0.00 | 0.00 | 61 | 1013.0 |
| 20260505190512 | 73 | 164 | 2.0 | 2.0 | 0.00 | 0.00 | 0.00 | 61 | 1013.0 |
| 20260505190214 | 73 | 169 | 0.0 | 2.0 | 0.00 | 0.00 | 0.00 | 63 | 1013.0 |
| 20260505190010 | 73 | 186 | 3.0 | 5.0 | 0.00 | 0.00 | 0.00 | 63 | 1013.0 |
| 20260505185510 | 72 | 213 | 1.0 | 1.0 | 0.00 | 0.00 | 0.00 | 63 | 1013.4 |
| 20260505185215 | 72 | 256 | 0.0 | 5.0 | 0.00 | 0.00 | 0.00 | 63 | 1013.4 |
| 20260505185012 | 72 | 210 | 0.0 | 3.0 | 0.00 | 0.00 | 0.00 | 61 | 1013.4 |
| 20260505184512 | 72 | 196 | 6.0 | 6.0 | 0.00 | 0.00 | 0.00 | 61 | 1013.4 |
| 20260505184214 | 72 | 251 | 3.0 | 8.0 | 0.00 | 0.00 | 0.00 | 62 | 1013.4 |
| 20260505184010 | 72 | 229 | 1.0 | 2.0 | 0.00 | 0.00 | 0.00 | 61 | 1013.4 |
| 20260505183512 | 72 | 196 | 1.0 | 3.0 | 0.00 | 0.00 | 0.00 | 62 | 1013.4 |
| 20260505183213 | 72 | 208 | 2.0 | 2.0 | 0.00 | 0.00 | 0.00 | 62 | 1013.4 |
| 20260505183011 | 72 | 189 | 1.0 | 8.0 | 0.00 | 0.00 | 0.00 | 61 | 1013.4 |
| 20260505182511 | 72 | 239 | 5.0 | 5.0 | 0.00 | 0.00 | 0.00 | 62 | 1013.6 |
| 20260505182214 | 72 | 250 | 2.0 | 2.0 | 0.00 | 0.00 | 0.00 | 63 | 1013.6 |
| 20260505182010 | 72 | 243 | 1.0 | 8.0 | 0.00 | 0.00 | 0.00 | 62 | 1013.6 |
| 20260505181512 | 72 | 174 | 2.0 | 3.0 | 0.00 | 0.00 | 0.00 | 65 | 1013.6 |
| 20260505181213 | 72 | 171 | 0.0 | 1.0 | 0.00 | 0.00 | 0.00 | 66 | 1013.8 |
| 20260505181010 | 72 | 229 | 0.0 | 1.0 | 0.00 | 0.00 | 0.00 | 64 | 1013.8 |
| 20260505180511 | 72 | 189 | 0.0 | 3.0 | 0.00 | 0.00 | 0.00 | 63 | 1013.8 |
| 20260505180215 | 72 | 247 | 3.0 | 5.0 | 0.00 | 0.00 | 0.00 | 64 | 1013.8 |
| 20260505175944 | 72 | 256 | 2.0 | 2.0 | 0.00 | 0.00 | 0.00 | 65 | 1013.8 |
| 20260505175444 | 72 | 186 | 1.0 | 3.0 | 0.00 | 0.00 | 0.00 | 64 | 1013.8 |
| 20260505175215 | 72 | 215 | 0.0 | 6.0 | 0.00 | 0.00 | 0.00 | 63 | 1013.8 |
| 20260505174945 | 72 | 208 | 0.0 | 2.0 | 0.00 | 0.00 | 0.00 | 62 | 1013.8 |
| 20260505174443 | 72 | 152 | 0.0 | 2.0 | 0.00 | 0.00 | 0.00 | 64 | 1014.0 |
| 20260505174215 | 72 | 203 | 1.0 | 4.0 | 0.00 | 0.00 | 0.00 | 62 | 1014.0 |
| 20260505173944 | 72 | 229 | 3.0 | 3.0 | 0.00 | 0.00 | 0.00 | 64 | 1014.0 |
| 20260505173444 | 72 | 195 | 1.0 | 4.0 | 0.00 | 0.00 | 0.00 | 62 | 1014.0 |
| 20260505173215 | 72 | 226 | 2.0 | 9.0 | 0.00 | 0.00 | 0.00 | 62 | 1014.0 |
| 20260505172944 | 72 | 209 | 2.0 | 5.0 | 0.00 | 0.00 | 0.00 | 64 | 1014.1 |
| 20260505172444 | 72 | 182 | 1.0 | 2.0 | 0.00 | 0.00 | 0.00 | 62 | 1014.1 |
| 20260505172214 | 72 | 272 | 6.0 | 6.0 | 0.00 | 0.00 | 0.00 | 61 | 1014.1 |
| 20260505171944 | 72 | 209 | 1.0 | 3.0 | 0.00 | 0.00 | 0.00 | 61 | 1014.1 |
| 20260505171443 | 72 | 240 | 8.0 | 9.0 | 0.00 | 0.00 | 0.00 | 63 | 1014.1 |
| 20260505171214 | 72 | 127 | 2.0 | 3.0 | 0.00 | 0.00 | 0.00 | 64 | 1014.1 |
| 20260505170944 | 72 | 212 | 1.0 | 3.0 | 0.00 | 0.00 | 0.00 | 62 | 1014.1 |
| 20260505170444 | 72 | 172 | 1.0 | 2.0 | 0.00 | 0.00 | 0.00 | 63 | 1014.1 |
| 20260505170213 | 72 | 256 | 6.0 | 6.0 | 0.00 | 0.00 | 0.00 | 61 | 1014.1 |
| 20260505165943 | 72 | 215 | 2.0 | 5.0 | 0.00 | 0.00 | 0.00 | 62 | 1014.3 |
| 20260505165444 | 72 | 40 | 3.0 | 3.0 | 0.00 | 0.00 | 0.00 | 62 | 1014.3 |
| 20260505165214 | 72 | 264 | 2.0 | 3.0 | 0.00 | 0.00 | 0.00 | 64 | 1014.3 |
| 20260505164943 | 71 | 268 | 2.0 | 2.0 | 0.00 | 0.00 | 0.00 | 64 | 1014.3 |
| 20260505164444 | 71 | 267 | 3.0 | 10.0 | 0.00 | 0.00 | 0.00 | 64 | 1014.2 |
| 20260505164214 | 71 | 285 | 1.0 | 3.0 | 0.00 | 0.00 | 0.00 | 63 | 1014.2 |
| 20260505163943 | 71 | 233 | 1.0 | 6.0 | 0.00 | 0.00 | 0.00 | 62 | 1014.2 |
| 20260505163444 | 71 | 256 | 5.0 | 10.0 | 0.00 | 0.00 | 0.00 | 63 | 1014.2 |
| 20260505163215 | 71 | 219 | 3.0 | 4.0 | 0.00 | 0.00 | 0.00 | 62 | 1014.2 |
| 20260505162943 | 71 | 275 | 0.0 | 7.0 | 0.00 | 0.00 | 0.00 | 63 | 1014.2 |
| 20260505162443 | 71 | 203 | 3.0 | 3.0 | 0.00 | 0.00 | 0.00 | 64 | 1014.2 |
| 20260505162214 | 71 | 244 | 3.0 | 10.0 | 0.00 | 0.00 | 0.00 | 63 | 1014.2 |
| 20260505161944 | 71 | 208 | 4.0 | 10.0 | 0.00 | 0.00 | 0.00 | 63 | 1014.2 |
| 20260505161443 | 71 | 253 | 2.0 | 7.0 | 0.00 | 0.00 | 0.00 | 62 | 1014.2 |
| 20260505160943 | 71 | 188 | 1.0 | 7.0 | 0.00 | 0.00 | 0.00 | 64 | 1014.2 |
| 20260505160443 | 71 | 239 | 4.0 | 6.0 | 0.00 | 0.00 | 0.00 | 64 | 1014.2 |
| 20260505160216 | 70 | 224 | 4.0 | 9.0 | 0.00 | 0.00 | 0.00 | 63 | 1014.2 |
| 20260505153214 | 70 | 212 | 3.0 | 6.0 | 0.00 | 0.00 | 0.00 | 66 | 1014.3 |
| 20260505152944 | 69 | 246 | 2.0 | 16.0 | 0.00 | 0.00 | 0.00 | 65 | 1014.2 |
| 20260505152444 | 69 | 247 | 7.0 | 7.0 | 0.00 | 0.00 | 0.00 | 67 | 1014.2 |
| 20260505152214 | 69 | 193 | 0.0 | 0.0 | 0.00 | 0.00 | 0.00 | 66 | 1014.2 |
| 20260505151945 | 69 | 304 | 1.0 | 1.0 | 0.00 | 0.00 | 0.00 | 68 | 1014.2 |
| 20260505151443 | 69 | 178 | 2.0 | 2.0 | 0.00 | 0.00 | 0.00 | 69 | 1014.1 |
| 20260505151213 | 69 | 250 | 3.0 | 3.0 | 0.00 | 0.00 | 0.00 | 69 | 1014.1 |
| 20260505150944 | 69 | 230 | 1.0 | 1.0 | 0.00 | 0.00 | 0.00 | 69 | 1014.1 |
| 20260505150444 | 69 | 232 | 2.0 | 9.0 | 0.00 | 0.00 | 0.00 | 72 | 1014.1 |
| 20260505150215 | 68 | 212 | 3.0 | 6.0 | 0.00 | 0.00 | 0.00 | 72 | 1014.1 |
| 20260505140444 | 66 | 234 | 0.0 | 1.0 | 0.00 | 0.00 | 0.00 | 75 | 1014.1 |
| 20260505140214 | 66 | 217 | 5.0 | 5.0 | 0.00 | 0.00 | 0.00 | 75 | 1014.1 |
| 20260505130215 | 60 | 217 | 1.0 | 2.0 | 0.00 | 0.00 | 0.00 | 86 | 1014.1 |
| 20260505124943 | 59 | 154 | 2.0 | 2.0 | 0.00 | 0.00 | 0.00 | 86 | 1014.1 |
| 20260505124443 | 58 | 217 | 0.0 | 2.0 | 0.00 | 0.00 | 0.00 | 87 | 1013.8 |
| 20260505124214 | 58 | 202 | 3.0 | 3.0 | 0.00 | 0.00 | 0.00 | 88 | 1013.8 |
| 20260505123945 | 58 | 206 | 0.0 | 1.0 | 0.00 | 0.00 | 0.00 | 88 | 1013.8 |
| 20260505123445 | 57 | 193 | 0.0 | 0.0 | 0.00 | 0.00 | 0.00 | 89 | 1013.8 |
| 20260505123215 | 57 | 165 | 0.0 | 0.0 | 0.00 | 0.00 | 0.00 | 89 | 1013.8 |
| 20260505122943 | 57 | 217 | 1.0 | 3.0 | 0.00 | 0.00 | 0.00 | 90 | 1013.8 |
| 20260505122443 | 56 | 198 | 0.0 | 3.0 | 0.00 | 0.00 | 0.00 | 90 | 1013.8 |
| 20260505122215 | 56 | 223 | 0.0 | 2.0 | 0.00 | 0.00 | 0.00 | 90 | 1013.8 |
| 20260505121944 | 56 | 217 | 0.0 | 0.0 | 0.00 | 0.00 | 0.00 | 91 | 1013.8 |
| 20260505121445 | 56 | 209 | 0.0 | 2.0 | 0.00 | 0.00 | 0.00 | 91 | 1013.6 |
| 20260505121215 | 56 | 213 | 0.0 | 0.0 | 0.00 | 0.00 | 0.00 | 91 | 1013.6 |
| 20260505120943 | 56 | 227 | 0.0 | 0.0 | 0.00 | 0.00 | 0.00 | 91 | 1013.6 |
| 20260505120443 | 55 | 202 | 0.0 | 0.0 | 0.00 | 0.00 | 0.00 | 91 | 1013.6 |
| 20260505120216 | 55 | 223 | 0.0 | 0.0 | 0.00 | 0.00 | 0.00 | 91 | 1013.6 |
| 20260505115945 | 55 | 195 | 0.0 | 0.0 | 0.00 | 0.00 | 0.00 | 91 | 1013.3 |
| 20260505115445 | 55 | 251 | 0.0 | 0.0 | 0.00 | 0.00 | 0.00 | 92 | 1013.3 |
| 20260505115215 | 55 | 222 | 1.0 | 1.0 | 0.00 | 0.00 | 0.00 | 92 | 1013.3 |
| 20260505114943 | 55 | 205 | 0.0 | 1.0 | 0.00 | 0.00 | 0.00 | 91 | 1013.3 |
| 20260505114443 | 55 | 227 | 0.0 | 0.0 | 0.00 | 0.00 | 0.00 | 91 | 1013.1 |
| 20260505114213 | 55 | 222 | 0.0 | 0.0 | 0.00 | 0.00 | 0.00 | 91 | 1013.1 |
| 20260505113943 | 55 | 216 | 0.0 | 0.0 | 0.00 | 0.00 | 0.00 | 91 | 1013.1 |
| 20260505113445 | 55 | 203 | 0.0 | 1.0 | 0.00 | 0.00 | 0.00 | 91 | 1013.1 |
| 20260505113216 | 55 | 193 | 0.0 | 1.0 | 0.00 | 0.00 | 0.00 | 91 | 1013.1 |
| 20260505112943 | 55 | 203 | 0.0 | 1.0 | 0.00 | 0.00 | 0.00 | 91 | 1012.8 |
| 20260505112444 | 55 | 200 | 0.0 | 0.0 | 0.00 | 0.00 | 0.00 | 91 | 1012.8 |
| 20260505112214 | 55 | 199 | 0.0 | 1.0 | 0.00 | 0.00 | 0.00 | 91 | 1012.8 |
| 20260505111944 | 55 | 217 | 0.0 | 2.0 | 0.00 | 0.00 | 0.00 | 91 | 1012.8 |
| 20260505111444 | 55 | 226 | 0.0 | 0.0 | 0.00 | 0.00 | 0.00 | 91 | 1012.7 |
| 20260505111216 | 55 | 227 | 0.0 | 0.0 | 0.00 | 0.00 | 0.00 | 91 | 1012.7 |
| 20260505110943 | 55 | 215 | 0.0 | 1.0 | 0.00 | 0.00 | 0.00 | 91 | 1012.7 |
| 20260505110443 | 54 | 193 | 3.0 | 3.0 | 0.00 | 0.00 | 0.00 | 91 | 1012.7 |
| 20260505110213 | 54 | 205 | 0.0 | 1.0 | 0.00 | 0.00 | 0.00 | 91 | 1012.7 |
| 20260505102214 | 55 | 206 | 0.0 | 0.0 | 0.00 | 0.00 | 0.00 | 90 | 1012.4 |
| 20260505101945 | 55 | 217 | 0.0 | 2.0 | 0.00 | 0.00 | 0.00 | 90 | 1012.4 |
| 20260505101444 | 55 | 217 | 0.0 | 0.0 | 0.00 | 0.00 | 0.00 | 89 | 1012.3 |
| 20260505101213 | 55 | 216 | 0.0 | 0.0 | 0.00 | 0.00 | 0.00 | 89 | 1012.3 |
| 20260505100943 | 55 | 216 | 1.0 | 1.0 | 0.00 | 0.00 | 0.00 | 89 | 1012.3 |
| 20260505100443 | 55 | 205 | 0.0 | 0.0 | 0.00 | 0.00 | 0.00 | 88 | 1012.3 |
| 20260505100215 | 55 | 215 | 0.0 | 0.0 | 0.00 | 0.00 | 0.00 | 88 | 1012.3 |
| 20260505095944 | 56 | 215 | 0.0 | 0.0 | 0.00 | 0.00 | 0.00 | 87 | 1012.3 |
| 20260505095444 | 56 | 212 | 0.0 | 1.0 | 0.00 | 0.00 | 0.00 | 87 | 1012.3 |
| 20260505095213 | 56 | 213 | 0.0 | 0.0 | 0.00 | 0.00 | 0.00 | 87 | 1012.3 |
| 20260505094943 | 56 | 227 | 0.0 | 1.0 | 0.00 | 0.00 | 0.00 | 86 | 1012.3 |
| 20260505094444 | 56 | 206 | 0.0 | 0.0 | 0.00 | 0.00 | 0.00 | 86 | 1012.3 |
| 20260505094326 | 56 | 206 | 0.0 | 1.0 | 0.00 | 0.00 | 0.00 | 86 | 1012.3 |
| 20260505094214 | 56 | 206 | 0.0 | 1.0 | 0.00 | 0.00 | 0.00 | 86 | 1012.3 |
| 20260505093943 | 56 | 205 | 0.0 | 1.0 | 0.00 | 0.00 | 0.00 | 85 | 1012.3 |
| 20260505093443 | 56 | 223 | 0.0 | 0.0 | 0.00 | 0.00 | 0.00 | 85 | 1012.3 |
| 20260505093214 | 57 | 203 | 0.0 | 0.0 | 0.00 | 0.00 | 0.00 | 85 | 1012.3 |
| 20260505092943 | 57 | 203 | 0.0 | 1.0 | 0.00 | 0.00 | 0.00 | 85 | 1012.5 |
| 20260505092444 | 57 | 219 | 0.0 | 1.0 | 0.00 | 0.00 | 0.00 | 84 | 1012.5 |
| 20260505092214 | 57 | 208 | 1.0 | 1.0 | 0.00 | 0.00 | 0.00 | 84 | 1012.5 |
| 20260505091944 | 57 | 199 | 0.0 | 3.0 | 0.00 | 0.00 | 0.00 | 84 | 1012.5 |
| 20260505091444 | 57 | 208 | 0.0 | 1.0 | 0.00 | 0.00 | 0.00 | 84 | 1012.5 |
| 20260505091213 | 57 | 227 | 0.0 | 1.0 | 0.00 | 0.00 | 0.00 | 84 | 1012.5 |
| 20260505090943 | 57 | 226 | 1.0 | 2.0 | 0.00 | 0.00 | 0.00 | 83 | 1012.5 |
| 20260505090444 | 58 | 226 | 0.0 | 2.0 | 0.00 | 0.00 | 0.00 | 83 | 1012.5 |
| 20260505090215 | 58 | 224 | 0.0 | 1.0 | 0.00 | 0.00 | 0.00 | 83 | 1012.5 |
| 20260505085944 | 58 | 195 | 2.0 | 2.0 | 0.00 | 0.00 | 0.00 | 83 | 1012.5 |
| 20260505085443 | 58 | 219 | 0.0 | 2.0 | 0.00 | 0.00 | 0.00 | 82 | 1012.5 |
| 20260505085213 | 58 | 195 | 1.0 | 3.0 | 0.00 | 0.00 | 0.00 | 82 | 1012.5 |
| 20260505084944 | 58 | 223 | 0.0 | 1.0 | 0.00 | 0.00 | 0.00 | 82 | 1012.5 |
| 20260505084445 | 58 | 198 | 0.0 | 1.0 | 0.00 | 0.00 | 0.00 | 81 | 1012.7 |
| 20260505084214 | 58 | 191 | 1.0 | 1.0 | 0.00 | 0.00 | 0.00 | 81 | 1012.7 |
| 20260505083944 | 58 | 227 | 0.0 | 3.0 | 0.00 | 0.00 | 0.00 | 81 | 1012.7 |
| 20260505083444 | 58 | 244 | 0.0 | 3.0 | 0.00 | 0.00 | 0.00 | 80 | 1012.7 |
| 20260505083214 | 59 | 251 | 0.0 | 3.0 | 0.00 | 0.00 | 0.00 | 80 | 1012.7 |
| 20260505082944 | 59 | 196 | 1.0 | 3.0 | 0.00 | 0.00 | 0.00 | 80 | 1012.6 |
| 20260505082443 | 59 | 199 | 1.0 | 1.0 | 0.00 | 0.00 | 0.00 | 79 | 1012.6 |